logo meteoveneto

Diretta Meteo Brindisi, Italiasabato 22 giugno ore 07:50

Mappa
Sereno 29 °C Sereno 24 Ore: T.min 23 T.max 29
Ponente Sud/Sud-Ovest Km/h 7.4 Punto di rugiada: 19 °C Umidità: 54% Visibilità: 10 Km
Il sole sorge alle: 05:16 Il sole tramonta alle: 20:24
22 Giugno 2024 07:50 tempo osservato: Sereno Sereno 29 54 1010 vento: Nord S/SO 7.4
22 Giugno 2024 07:20 tempo osservato: Sereno Sereno 27 61 1010 vento: Nord N 5.5
22 Giugno 2024 06:50 tempo osservato: Sereno Sereno 25 73 1010 vento: Nord SO 7.4
22 Giugno 2024 06:20 tempo osservato: Sereno Sereno 24 78 1010 vento: Nord N 3.7
22 Giugno 2024 05:50 tempo osservato: Sereno Sereno 23 83 1009 vento: Nord SO 7.4
22 Giugno 2024 05:20 tempo osservato: Sereno Sereno 23 83 1010 vento: Nord N 3.7
22 Giugno 2024 04:50 tempo osservato: Sereno Sereno 23 88 1010 vento: Nord O/SO 9.3
22 Giugno 2024 04:20 tempo osservato: Sereno Sereno 24 88 1010 vento: Nord N 3.7
22 Giugno 2024 03:50 tempo osservato: Sereno Sereno 24 88 1010 vento: Nord N 1.8
22 Giugno 2024 03:20 tempo osservato: Sereno Sereno 24 88 1010 vento: Nord N 1.8
22 Giugno 2024 02:50 tempo osservato: Sereno Sereno 24 88 1010 vento: Nord N 5.5
22 Giugno 2024 02:20 tempo osservato: Sereno Sereno 25 88 1011 vento: Nord N 3.7
22 Giugno 2024 01:50 tempo osservato: Sereno Sereno 24 94 1011 vento: Nord N 3.7
22 Giugno 2024 01:20 tempo osservato: Sereno Sereno 24 94 1011 vento: Nord N 3.7
22 Giugno 2024 00:50 tempo osservato: Sereno Sereno 24 88 1011 vento: Nord N 5.5
22 Giugno 2024 00:20 tempo osservato: Sereno Sereno 25 88 1011 vento: Nord N 3.7
21 Giugno 2024 23:50 tempo osservato: Sereno Sereno 25 88 1012 vento: Nord N 1.8
21 Giugno 2024 23:20 tempo osservato: Sereno Sereno 25 88 1012 vento: Nord N 1.8
21 Giugno 2024 22:50 tempo osservato: Sereno Sereno 25 88 1012 vento: Nord N 1.8
21 Giugno 2024 22:20 tempo osservato: Sereno Sereno 26 83 1012 vento: Nord N 5.5
21 Giugno 2024 21:50 tempo osservato: Sereno Sereno 26 83 1012 vento: Nord N 5.5
21 Giugno 2024 21:20 tempo osservato: Sereno Sereno 26 83 1011 vento: Nord N 3.7
21 Giugno 2024 20:50 tempo osservato: Sereno Sereno 26 88 1011 vento: Nord N 5.5
21 Giugno 2024 20:20 tempo osservato: Sereno Sereno 27 83 1011 vento: Nord NO 9.3
21 Giugno 2024 19:50 tempo osservato: Sereno Sereno 27 83 1011 vento: Nord NO 7.4
21 Giugno 2024 19:20 tempo osservato: Sereno Sereno 28 78 1012 vento: Nord N 5.5
21 Giugno 2024 18:50 tempo osservato: Sereno Sereno 28 78 1012 vento: Nord N 7.4
21 Giugno 2024 18:20 tempo osservato: Sereno Sereno 28 78 1012 vento: Nord N/NO 9.3
21 Giugno 2024 17:50 tempo osservato: Sereno Sereno 29 74 1012 vento: Nord N 11.1
21 Giugno 2024 17:20 tempo osservato: Sereno Sereno 29 70 1012 vento: Nord N 11.1
21 Giugno 2024 16:50 tempo osservato: Sereno Sereno 29 70 1013 vento: Nord N 13
21 Giugno 2024 16:20 tempo osservato: Sereno Sereno 29 70 1013 vento: Nord N 14.8
21 Giugno 2024 15:50 tempo osservato: Sereno Sereno 29 74 1013 vento: Nord N 16.7
21 Giugno 2024 15:20 tempo osservato: Sereno Sereno 29 70 1013 vento: Nord N/NO 16.7
21 Giugno 2024 14:50 tempo osservato: Sereno Sereno 29 74 1014 vento: Nord N/NO 18.5
21 Giugno 2024 14:20 tempo osservato: Sereno Sereno 29 70 1014 vento: Nord N/NO 20.3
21 Giugno 2024 13:50 tempo osservato: Sereno Sereno 29 70 1014 vento: Nord NO 20.3
21 Giugno 2024 13:20 tempo osservato: Sereno Sereno 29 70 1014 vento: Nord N/NO 20.3
21 Giugno 2024 12:50 tempo osservato: Sereno Sereno 28 74 1014 vento: Nord N/NO 20.3
21 Giugno 2024 12:20 tempo osservato: Sereno Sereno 29 70 1014 vento: Nord N/NO 20.3
21 Giugno 2024 11:50 tempo osservato: Sereno Sereno 28 74 1015 vento: Nord N/NO 24
21 Giugno 2024 11:20 tempo osservato: Sereno Sereno 28 74 1014 vento: Nord N/NO 25.9
21 Giugno 2024 10:50 tempo osservato: Sereno Sereno 28 69 1014 vento: Nord NO 25.9
21 Giugno 2024 10:20 tempo osservato: Sereno Sereno 28 69 1015 vento: Nord N/NO 24
21 Giugno 2024 09:50 tempo osservato: Sereno Sereno 28 69 1015 vento: Nord NO 25.9
21 Giugno 2024 09:20 tempo osservato: Sereno Sereno 28 65 1014 vento: Nord N/NO 25.9
21 Giugno 2024 08:50 tempo osservato: Sereno Sereno 28 65 1014 vento: Nord NO 27.8